Weather History for Araxos, Greece

Change the Weather History Date:

Sunday, July 14, 2013

  Actual Average Record
Temperature  
Mean Temperature 76 °F -  
Max Temperature 87 °F 87 °F 100 °F (1998)
Min Temperature 66 °F 66 °F 62 °F (2007)
Cooling Degree Days 12    
Growing Degree Days 26 (Base 50)    
Moisture  
Dew Point 65 °F    
Average Humidity 62    
Maximum Humidity 88    
Minimum Humidity 43    
Precipitation  
Precipitation 0.00 in - - ()
Sea Level Pressure  
Sea Level Pressure 29.90 in    
Wind  
Wind Speed 2 mph ()    
Max Wind Speed 8 mph    
Max Gust Speed -    
Visibility 6.2 miles    
Events      
Averages and records for this station are not official NWS values.
T = Trace of Precipitation, MM = Missing Value Source: Averaged Metar Reports

Daily Weather History Graph

Daily Weather History Graph

Search for Another Location

Airport:

Trip Planner

Search our weather history database for the weather conditions in past years. The results will help you decide how hot, cold, wet, or windy it might be!

Date:

Astronomy

Jul. 14, 2013 Rise Set
Actual Time 6:22 AM EEST 8:57 PM EEST
Civil Twilight 5:51 AM EEST 9:28 PM EEST
Nautical Twilight 5:13 AM EEST 10:06 PM EEST
Astronomical Twilight 4:30 AM EEST 10:48 PM EEST
Moon 12:14 PM EEST (7/14) No Moon Set
Length of Visible Light 15h 36m
Length of Day
14h 34m
Waxing Crescent, 32% of the Moon is Illuminated
Jul 14
Waxing Crescent
Jul 16
First Quarter
Jul 22
Full
Jul 29
Last Quarter
Aug 7
New

Hourly Weather History & Observations

Time (EEST) Temp. Heat Index Dew Point Humidity Pressure Visibility Wind Dir Wind Speed Gust Speed Precip Events Conditions
12:50 AM 71.6 °F - 66.2 °F 83% 29.92 in - Calm Calm - N/A   Clear
1:50 AM 69.8 °F - 64.4 °F 83% 29.92 in - Calm Calm - N/A   Clear
2:50 AM 69.8 °F - 64.4 °F 83% 29.92 in - Calm Calm - N/A   Clear
3:50 AM 69.8 °F - 64.4 °F 83% 29.92 in - Calm Calm - N/A   Clear
4:50 AM 68.0 °F - 62.6 °F 83% 29.92 in - Calm Calm - N/A   Clear
5:50 AM 68.0 °F - 62.6 °F 83% 29.92 in - Calm Calm - N/A   Clear
6:20 AM 66.2 °F - 62.6 °F 88% 29.92 in - Calm Calm - N/A   Clear
6:50 AM 68.0 °F - 62.6 °F 83% 29.92 in - Calm Calm - N/A   Clear
7:20 AM 69.8 °F - 62.6 °F 78% 29.92 in - Calm Calm - N/A   Clear
7:50 AM 73.4 °F - 64.4 °F 73% 29.92 in - Calm Calm - N/A   Clear
8:20 AM 77.0 °F - 68.0 °F 74% 29.92 in - Calm Calm - N/A   Clear
8:50 AM 78.8 °F - 64.4 °F 61% 29.92 in - Calm Calm - N/A   Clear
9:20 AM 80.6 °F 82.3 °F 64.4 °F 58% 29.92 in - Variable 2.3 mph - N/A   Clear
9:50 AM 82.4 °F 83.9 °F 64.4 °F 54% 29.92 in - Calm Calm - N/A   Clear
10:20 AM 84.2 °F 85.6 °F 64.4 °F 51% 29.92 in - Calm Calm - N/A   Clear
10:50 AM 84.2 °F 85.0 °F 62.6 °F 48% 29.92 in - Variable 2.3 mph - N/A   Clear
11:20 AM 87.8 °F 89.4 °F 64.4 °F 46% 29.92 in 6.2 mi Variable 3.5 mph - N/A   Partly Cloudy
11:50 AM 86.0 °F 89.4 °F 68.0 °F 55% 29.92 in 6.2 mi West 5.8 mph - N/A   Partly Cloudy
12:20 PM 86.0 °F 88.2 °F 66.2 °F 51% 29.92 in 6.2 mi West 6.9 mph - N/A   Partly Cloudy
12:50 PM 86.0 °F 87.3 °F 64.4 °F 48% 29.92 in 6.2 mi West 5.8 mph - N/A   Partly Cloudy
1:20 PM 86.0 °F 87.3 °F 64.4 °F 48% 29.92 in 6.2 mi West 8.1 mph - N/A   Partly Cloudy
1:50 PM 84.2 °F 86.6 °F 66.2 °F 55% 29.89 in 6.2 mi West 6.9 mph - N/A   Partly Cloudy
2:20 PM 84.2 °F 85.6 °F 64.4 °F 51% 29.89 in 6.2 mi West 6.9 mph - N/A   Partly Cloudy
2:50 PM 86.0 °F 87.3 °F 64.4 °F 48% 29.89 in 6.2 mi WSW 5.8 mph - N/A   Partly Cloudy
3:20 PM 84.2 °F 86.6 °F 66.2 °F 55% 29.89 in 6.2 mi WSW 5.8 mph - N/A   Partly Cloudy
3:50 PM 84.2 °F 86.6 °F 66.2 °F 55% 29.89 in 6.2 mi West 6.9 mph - N/A   Partly Cloudy
4:20 PM 84.2 °F 86.6 °F 66.2 °F 55% 29.89 in 6.2 mi West 6.9 mph - N/A   Partly Cloudy
4:50 PM 86.0 °F 86.6 °F 62.6 °F 45% 29.89 in 6.2 mi West 4.6 mph - N/A   Partly Cloudy
5:20 PM 86.0 °F 86.1 °F 60.8 °F 43% 29.86 in 6.2 mi Variable 3.5 mph - N/A   Partly Cloudy
5:50 PM 86.0 °F 86.1 °F 60.8 °F 43% 29.86 in 6.2 mi West 5.8 mph - N/A   Partly Cloudy
6:20 PM 84.2 °F 85.0 °F 62.6 °F 48% 29.86 in 6.2 mi West 5.8 mph - N/A   Partly Cloudy
6:50 PM 84.2 °F 85.6 °F 64.4 °F 51% 29.86 in 6.2 mi West 5.8 mph - N/A   Partly Cloudy
7:20 PM 82.4 °F 84.6 °F 66.2 °F 58% 29.86 in 6.2 mi West 5.8 mph - N/A   Partly Cloudy
7:50 PM 82.4 °F 83.9 °F 64.4 °F 54% 29.89 in 6.2 mi West 5.8 mph - N/A   Partly Cloudy
8:20 PM 80.6 °F 82.3 °F 64.4 °F 58% 29.89 in 6.2 mi Variable 2.3 mph - N/A   Partly Cloudy
8:50 PM 78.8 °F - 64.4 °F 61% 29.89 in 6.2 mi Calm Calm - N/A   Partly Cloudy
9:50 PM 77.0 °F - 66.2 °F 69% 29.89 in 6.2 mi Variable 2.3 mph - N/A   Partly Cloudy
10:50 PM 75.2 °F - 66.2 °F 73% 29.89 in 6.2 mi Variable 2.3 mph - N/A   Partly Cloudy
11:50 PM 73.4 °F - 68.0 °F 83% 29.89 in 6.2 mi Calm Calm - N/A   Partly Cloudy